Terminal Aerodrome Forecast
Issued by NWS

Home | Current Version | Previous Version | Text Only | Print | Product List | Glossary On
Versions: 1 2 3 4 5 6 7 8 9 10 11 12 13 14 15
000
FTUS46 KLOX 252254 AAB
TAFWJF
TAF AMD
KWJF 252254Z 2523/2618 23018G26KT P6SM SCT110
     FM260200 24014KT P6SM SCT150
     FM260600 25008KT P6SM SCT150=

USA.gov is the U.S. government's official web portal to all federal, state and local government web resources and services.